Theta_e
341 340 341 341 340 339 338 338 338 337 336 336 336 337 332 329 332 333 334 338 341 341 341 342 342 342 342 341 340 340 340 340 339 337 336 336 335 334 333 333 332 332 332 331 331 332 335 335 331 329 330 329 325 322 321 321 320 319 319 317 316 315 313
340 340 340 340 339 339 338 338 338 337 336 336 336 336 333 330 332 334 334 336 339 342 341 342 343 343 342 342 341 341 341 341 339 338 336 336 336 335 334 333 332 332 332 333 332 329 330 334 334 330 328 328 326 323 322 321 321 320 320 319 317 315 314
340 340 339 340 339 338 337 337 337 337 336 336 336 335 334 332 333 336 337 338 339 341 341 342 342 343 342 342 341 341 341 341 339 338 336 335 335 335 335 334 332 332 332 332 332 330 328 329 332 331 326 326 326 324 323 321 321 321 321 319 317 315 314
339 339 339 339 338 338 337 337 337 337 336 336 336 335 335 335 336 337 339 340 340 340 341 342 342 343 342 342 342 341 341 341 340 338 336 335 335 335 335 334 333 333 332 332 332 332 329 327 330 330 325 325 326 325 325 324 322 322 321 320 317 315 314
339 339 339 339 339 338 338 337 336 336 337 337 336 336 335 336 337 338 339 340 340 340 341 341 342 342 342 342 342 342 342 341 340 339 337 336 335 335 335 334 334 334 332 333 332 333 331 329 330 328 325 326 326 325 326 325 323 322 321 320 318 316 314
339 338 339 339 338 338 338 337 336 335 337 338 337 337 336 336 337 338 339 339 340 340 340 341 342 341 341 342 342 342 342 341 341 339 338 338 336 335 335 335 334 334 333 333 333 333 333 331 329 327 326 326 325 325 326 325 323 322 321 320 319 316 314
339 338 339 339 339 339 338 337 336 335 336 338 338 338 338 337 337 337 338 338 339 340 340 341 341 342 341 342 342 342 342 341 341 340 339 338 338 336 335 335 334 334 334 334 334 334 334 333 330 328 327 326 324 323 324 324 323 322 321 321 320 317 316
339 339 338 339 339 339 339 338 337 335 335 337 338 338 338 338 338 337 337 338 338 339 340 340 341 342 342 342 342 342 342 342 342 341 340 338 338 337 336 335 335 335 335 334 334 334 334 333 332 330 329 328 328 325 321 322 322 321 322 322 321 319 318
340 339 339 339 339 339 339 338 337 336 335 335 336 337 338 338 338 338 338 337 338 338 339 340 340 341 342 342 342 342 342 342 342 341 340 339 339 338 337 336 335 335 335 335 335 335 334 334 334 333 329 328 331 330 325 324 323 321 323 322 320 321 320
340 340 339 339 339 339 339 339 339 338 336 335 335 336 337 338 338 338 338 338 338 338 338 339 340 341 342 342 342 342 342 341 342 341 341 340 339 339 338 337 336 335 335 335 335 335 334 334 333 332 331 327 329 332 331 331 326 320 322 323 321 321 321
341 340 340 339 339 339 339 339 339 339 338 337 336 335 336 336 337 337 338 338 338 338 338 339 340 340 341 341 341 341 341 341 341 341 341 340 339 339 338 337 336 336 335 335 335 335 334 334 333 331 331 330 329 330 329 332 330 323 321 323 322 322 321
341 341 340 340 339 339 339 339 340 340 339 339 338 337 336 336 337 337 337 338 338 338 339 339 339 340 340 341 341 341 341 341 341 341 341 340 339 338 337 337 336 335 335 335 334 335 334 333 333 332 332 331 330 330 328 328 331 328 323 323 323 322 322
342 341 341 340 340 339 339 340 340 340 340 340 339 338 337 337 337 337 338 338 338 338 339 339 340 340 340 341 341 341 341 341 341 341 340 340 339 338 337 337 336 336 335 335 334 335 335 333 333 332 332 331 330 331 329 327 328 328 324 323 322 321 321
342 342 341 341 340 340 340 340 340 340 341 340 340 339 338 338 337 338 338 338 338 338 338 339 340 340 340 341 341 341 341 341 340 340 340 340 339 338 338 337 337 336 335 335 335 335 334 333 333 331 331 332 331 330 330 328 326 324 321 320 320 319 318
343 342 342 341 341 340 340 340 340 341 341 341 341 340 340 339 338 338 338 338 338 338 338 338 339 340 340 341 341 341 341 340 340 340 340 340 339 338 338 337 337 336 335 335 336 335 334 333 332 332 332 332 331 330 330 329 326 322 318 317 317 317 317
343 343 342 342 342 341 341 340 340 341 342 341 341 341 341 340 339 339 338 338 338 338 339 339 339 340 340 340 340 340 340 340 340 340 339 339 339 338 338 337 337 336 336 336 336 334 333 333 332 332 332 332 331 330 330 329 326 322 318 314 314 315 315
343 343 343 343 342 342 342 341 341 341 341 342 342 342 342 341 340 340 339 339 339 338 339 339 339 340 340 340 340 340 340 340 340 340 339 339 339 338 337 337 336 336 336 336 335 333 333 333 333 332 332 331 331 331 330 329 326 323 319 314 312 313 314
344 344 344 344 343 343 343 342 342 342 342 342 342 342 342 342 341 341 340 339 339 339 339 339 340 340 340 340 340 340 340 340 339 339 339 339 339 338 337 337 336 336 335 334 334 333 332 332 332 332 332 331 331 331 330 328 326 323 320 316 313 311 311
343 345 345 344 345 344 344 343 343 343 343 342 343 342 342 342 342 341 341 340 340 340 339 340 340 340 340 340 340 340 340 340 339 339 339 338 338 338 337 337 336 335 334 334 333 332 331 331 331 331 331 330 330 330 329 327 325 322 319 317 314 310 309
339 345 346 345 346 345 345 344 344 344 343 343 343 343 343 343 342 342 342 341 341 340 340 340 340 340 340 340 340 340 340 339 339 339 339 338 338 337 337 336 336 335 334 333 333 331 330 330 331 330 330 329 329 328 327 325 323 320 317 316 313 310 309
338 343 345 346 346 346 346 346 345 344 344 344 344 344 343 343 343 342 342 341 341 341 340 340 340 340 340 340 340 340 340 340 339 338 338 338 337 337 336 335 335 334 334 334 333 331 330 330 331 331 330 329 328 326 325 324 322 319 316 315 313 310 309
338 341 344 346 346 346 346 346 346 345 345 345 345 344 344 343 343 343 343 342 342 341 341 341 340 340 340 340 340 340 340 340 339 338 338 337 337 336 336 335 334 334 334 333 332 331 330 330 330 331 329 328 326 325 323 322 320 317 315 314 313 310 309
337 340 343 346 347 346 346 346 346 346 346 345 345 345 344 344 344 343 343 342 342 342 341 341 341 340 340 340 340 340 340 339 339 339 337 336 336 335 335 334 334 333 333 333 332 331 330 329 329 329 329 327 325 324 321 319 317 316 314 313 313 311 309
334 338 341 345 347 347 347 347 347 347 346 346 345 345 345 344 344 344 343 343 342 342 341 341 341 341 340 340 340 340 340 339 339 338 338 337 336 335 334 334 333 333 332 332 332 331 330 329 329 328 327 327 326 324 322 319 316 314 313 313 313 312 310
337 339 342 345 346 346 347 347 347 347 347 346 346 345 345 344 344 344 343 343 342 342 342 342 341 341 341 340 340 340 340 339 339 338 337 337 336 334 333 332 332 332 332 332 331 331 330 329 329 328 327 326 325 324 323 321 319 315 313 312 312 312 311
342 342 344 344 344 344 345 346 347 347 347 347 346 346 345 344 344 344 343 343 343 342 342 342 341 341 341 340 340 340 340 339 339 338 337 336 336 335 334 332 331 331 331 331 331 330 330 329 328 327 326 325 324 323 322 321 319 316 313 312 312 312 312
339 341 342 342 342 343 343 344 346 347 347 347 346 346 345 345 344 344 344 343 343 342 342 342 342 341 341 341 340 340 339 339 338 338 337 336 336 335 334 332 331 331 331 331 330 330 329 328 327 326 325 324 322 321 319 317 314 313 312 311 311 311 311
333 336 338 339 339 340 341 342 343 345 346 347 346 346 346 345 345 344 344 343 343 343 342 342 342 342 341 341 340 339 339 339 338 337 337 336 336 336 334 332 331 331 331 330 330 329 328 327 326 324 323 322 320 319 317 315 312 311 311 311 311 311 311
327 331 335 337 338 339 340 341 341 341 341 343 345 346 346 345 345 344 344 344 343 342 342 342 342 342 341 340 340 339 338 338 338 337 336 336 336 335 334 333 331 331 331 330 330 329 327 326 325 323 322 320 318 317 315 314 312 311 311 311 311 311 310
324 327 331 334 335 336 338 340 341 340 338 337 339 342 345 346 346 344 344 343 343 342 342 342 342 342 341 340 339 338 337 338 338 337 336 335 335 335 334 332 331 331 331 330 330 328 327 325 324 322 320 318 316 314 313 312 311 311 311 311 310 309 307
323 326 328 330 331 332 333 334 337 338 337 335 334 336 338 341 344 345 345 344 343 343 342 342 342 342 341 340 339 338 337 337 337 336 335 335 334 334 334 332 331 331 331 330 330 328 326 325 323 321 319 317 314 312 311 310 310 310 309 309 308 307 307
323 324 326 328 330 331 331 331 332 334 334 334 333 333 333 334 338 342 344 344 344 343 343 342 342 342 341 340 339 338 336 336 336 336 335 334 333 332 332 331 330 330 331 331 330 328 326 324 322 320 318 316 313 311 311 310 309 309 309 308 308 308 307
324 324 325 326 327 329 331 331 332 333 333 332 332 333 333 333 334 335 337 340 342 343 343 342 342 342 341 340 340 338 336 336 336 336 335 334 333 331 330 329 329 329 330 330 330 328 327 325 323 321 318 315 313 312 311 310 309 309 308 308 308 308 308
324 324 324 326 327 329 330 331 331 333 334 333 332 333 334 335 334 334 334 336 338 341 343 343 342 342 341 341 340 339 337 336 336 336 335 333 332 330 329 327 327 326 327 328 329 328 327 326 324 321 318 316 315 314 313 310 309 308 308 308 308 308 307
324 326 328 330 330 330 331 332 332 332 333 334 333 333 334 334 334 334 335 334 333 335 339 342 342 342 342 341 341 339 338 337 337 336 334 333 331 330 329 327 325 325 326 328 329 328 328 326 324 320 318 317 316 315 313 311 309 308 307 307 307 308 308
327 329 331 332 331 330 331 332 332 332 332 333 333 333 333 333 332 332 333 333 331 331 334 338 340 341 341 340 340 340 339 339 337 336 335 333 332 330 329 327 325 324 326 328 328 328 328 326 323 321 318 316 315 314 312 310 308 307 307 307 307 307 308
331 332 333 332 331 331 332 332 331 330 331 331 332 332 331 332 331 331 331 331 331 331 331 333 336 339 340 339 339 339 340 339 338 336 335 334 332 331 329 327 325 324 326 328 329 328 327 327 325 321 317 315 314 313 311 308 307 307 306 306 306 306 306
Wind_Speed
37 36 36 35 34 35 35 36 36 39 40 37 38 37 36 38 38 37 39 38 36 35 35 35 35 34 33 32 30 29 28 27 28 27 27 29 27 26 28 25 17 9 7 8 9 8 4 2 9 15 19 21 23 26 26 26 26 25 25 25 24 23 22
38 34 31 32 33 34 35 36 36 38 40 39 39 39 37 38 38 38 39 39 38 37 36 35 35 35 33 33 31 30 30 29 29 29 28 30 31 29 27 27 23 16 12 10 11 12 7 3 4 6 12 16 18 26 30 28 28 28 27 27 26 25 23
36 32 29 30 33 34 35 36 36 37 39 40 40 40 39 39 39 39 39 40 39 38 37 36 36 36 35 34 33 32 31 31 30 31 30 31 32 31 29 28 26 21 15 11 12 14 9 6 5 4 11 14 13 22 30 32 32 31 29 29 28 27 26
36 33 31 32 34 35 35 37 37 37 38 40 41 41 40 40 40 41 40 40 39 38 38 37 36 36 36 35 34 33 33 32 31 31 31 31 31 32 31 29 29 27 23 17 17 18 13 7 5 4 10 17 16 20 26 30 34 33 31 29 29 29 28
38 36 35 36 37 37 37 37 36 36 37 39 41 42 42 42 42 42 42 41 40 39 39 38 37 37 36 36 35 34 34 33 32 32 32 32 31 32 32 32 32 32 30 27 23 22 19 15 12 7 9 14 14 19 25 25 28 32 32 30 30 29 29
40 39 39 38 38 39 38 36 36 36 37 39 41 43 44 44 43 43 43 42 41 41 40 38 38 37 37 36 36 36 35 34 34 33 34 34 33 33 33 33 33 32 33 32 28 24 22 21 16 10 11 13 10 15 23 23 22 25 29 32 31 30 29
42 41 41 40 40 39 38 38 39 39 39 41 43 44 45 44 44 44 43 43 41 40 40 39 38 38 37 37 37 37 37 36 35 35 35 34 34 35 34 33 34 35 35 34 31 27 24 22 20 15 11 10 10 12 15 18 19 18 22 29 32 31 30
43 43 43 41 41 40 39 39 40 41 42 43 44 44 43 44 45 44 43 43 42 40 40 40 39 38 38 37 37 37 37 37 36 36 36 35 35 36 35 34 34 35 36 35 33 31 29 26 24 22 16 8 6 8 8 12 15 18 21 24 27 32 32
42 42 42 41 40 40 41 41 41 43 44 43 41 41 42 43 44 44 43 43 42 41 40 40 40 39 39 38 38 38 38 37 37 37 37 36 36 36 36 35 34 34 35 35 34 32 31 29 26 25 23 16 8 4 4 6 8 14 22 21 20 28 32
43 42 42 42 42 42 42 41 41 42 43 42 41 40 41 43 44 43 43 42 42 42 41 40 40 40 39 39 39 38 38 38 37 37 37 37 37 37 36 36 35 35 34 34 34 32 30 29 26 24 24 23 17 7 3 5 5 10 17 21 21 22 27
43 43 43 43 44 43 42 41 40 40 41 42 41 40 40 42 43 43 43 42 42 42 42 41 41 40 40 40 39 39 39 38 37 37 38 38 37 36 36 36 36 36 35 34 34 33 31 29 28 26 24 24 22 16 9 5 6 10 14 19 22 22 23
44 44 43 43 42 40 41 41 40 41 42 41 41 40 40 41 42 43 43 42 41 41 41 42 41 40 40 40 40 39 39 38 38 38 38 38 37 36 36 36 36 36 36 35 33 33 33 32 30 29 26 24 24 23 19 11 5 8 12 15 18 21 23
45 44 43 42 41 40 42 42 42 41 40 40 41 40 40 41 42 43 43 43 42 41 41 41 41 41 40 40 40 40 39 39 39 38 38 38 37 36 36 36 37 37 36 35 34 33 33 33 32 30 28 27 26 24 23 17 8 8 13 14 14 17 21
44 44 44 43 42 42 42 42 43 42 40 39 40 40 40 41 42 43 42 42 42 42 42 41 41 41 41 40 39 39 39 39 39 38 37 37 37 37 37 37 37 37 36 35 34 34 33 32 31 30 29 29 28 26 24 21 14 10 13 14 14 15 19
45 44 43 43 43 42 42 42 42 41 40 39 39 40 41 42 41 41 42 42 42 42 42 42 41 41 42 41 40 39 39 39 40 38 37 37 38 37 37 37 37 37 36 36 35 33 33 32 31 30 29 29 29 28 26 23 18 13 12 13 14 15 18
42 43 42 42 42 42 41 41 41 41 41 41 40 40 41 41 41 41 41 41 42 41 42 42 42 43 43 42 41 40 40 40 40 39 38 38 38 37 36 37 37 37 35 35 34 33 32 32 31 31 30 30 29 28 26 24 21 17 15 14 15 17 19
39 40 41 41 41 40 39 39 40 40 41 40 39 40 40 40 39 39 40 41 41 42 43 43 43 43 43 42 41 41 40 41 41 41 40 40 39 38 38 38 38 36 35 35 34 34 33 32 32 33 32 31 30 29 27 25 23 20 17 16 16 19 21
36 38 39 40 40 40 40 40 40 40 40 39 38 39 38 38 39 39 40 42 42 43 44 43 43 43 43 42 41 41 41 41 41 41 41 41 40 39 39 39 38 36 35 35 35 35 34 33 33 33 33 32 31 29 27 25 24 22 20 19 19 19 21
33 36 38 38 39 40 40 41 41 41 40 39 38 38 38 39 40 40 42 43 43 43 43 43 42 42 43 42 41 41 41 41 41 41 41 41 41 41 40 40 39 37 37 37 37 36 35 34 33 33 32 31 31 29 26 25 24 23 21 21 20 20 22
37 38 39 39 39 39 40 41 42 41 40 39 38 38 39 39 40 42 43 42 42 42 42 41 41 41 41 42 42 41 41 41 41 41 41 41 41 41 41 40 39 39 39 39 39 37 36 35 33 32 31 30 29 28 26 25 25 23 22 21 20 21 23
42 41 41 41 40 40 41 42 42 41 38 37 38 39 40 40 41 42 42 42 42 42 40 40 40 41 42 42 42 42 42 41 40 40 40 40 40 41 41 40 40 40 41 41 40 38 37 36 34 32 31 29 28 28 27 26 25 24 22 22 21 21 23
42 42 41 40 39 40 41 40 40 39 38 38 39 40 40 40 41 41 42 42 42 40 40 41 42 43 43 42 42 42 41 40 40 39 39 39 39 41 41 40 41 41 41 41 40 38 36 36 35 33 31 30 29 28 27 26 25 24 22 21 21 21 21
40 39 37 37 37 38 38 38 38 38 38 39 40 39 39 39 40 40 41 42 41 40 40 42 45 46 45 44 43 41 40 40 40 39 38 37 38 40 40 41 42 42 41 40 39 37 35 35 34 33 32 31 31 29 28 27 26 25 23 22 22 22 21
41 38 35 34 35 35 36 36 36 37 38 40 40 40 39 39 40 41 42 42 41 41 42 44 47 48 47 46 44 41 40 39 39 39 38 38 38 39 39 40 41 41 41 40 39 37 35 35 34 32 31 31 31 31 30 29 28 26 25 24 23 24 24
38 36 33 33 34 35 35 35 35 36 37 39 39 39 39 40 41 42 42 42 42 42 44 46 48 48 48 48 47 44 41 39 38 38 39 39 38 38 38 39 40 41 41 40 39 37 36 35 35 33 31 30 31 31 31 31 30 29 28 27 25 25 26
32 31 31 33 34 34 34 34 35 36 37 39 39 39 39 41 42 42 42 41 42 44 45 47 48 48 49 49 49 46 42 39 38 38 38 39 38 38 38 38 38 40 40 39 38 37 36 35 34 32 30 30 30 31 31 31 32 31 31 31 30 28 28
29 31 32 32 32 33 33 35 37 37 37 37 37 38 40 41 41 42 43 43 43 44 46 47 47 48 49 49 49 49 45 40 38 38 39 39 39 39 39 39 39 39 39 39 38 36 36 35 33 31 30 30 31 31 31 31 31 32 32 33 32 30 29
22 28 31 31 29 30 31 33 35 36 37 38 39 40 41 42 43 44 44 43 43 44 46 47 47 47 49 49 49 49 46 41 38 39 39 40 41 41 41 40 40 40 40 39 38 37 36 34 32 30 30 31 31 31 31 31 31 31 32 32 32 30 28
15 20 26 29 29 29 29 29 29 29 31 34 38 41 42 42 43 44 44 44 43 44 46 47 47 47 48 48 47 48 46 42 39 38 39 40 41 42 42 41 41 41 41 40 39 38 36 34 32 31 31 32 32 31 31 31 30 30 30 30 29 27 26
15 17 21 25 28 31 32 33 34 33 31 31 32 35 39 42 43 43 43 44 44 43 44 45 46 47 47 46 46 46 45 42 40 39 39 39 41 42 42 42 42 41 41 40 39 37 36 34 33 32 32 32 31 30 30 30 29 29 28 27 27 26 25
17 19 21 24 27 30 32 35 38 39 37 35 35 35 35 36 39 43 44 45 44 44 44 45 45 46 46 45 45 46 44 41 39 38 38 38 40 42 43 43 43 43 43 41 40 38 36 35 34 33 33 32 31 31 31 30 29 28 26 25 24 24 23
19 20 23 25 26 29 31 33 35 38 39 39 39 39 36 33 34 37 40 43 44 44 43 42 42 43 44 45 45 45 43 40 38 38 37 36 37 39 41 42 44 45 44 43 41 39 38 36 35 35 35 34 33 33 34 32 30 29 27 25 24 23 22
21 22 24 27 28 30 31 31 32 35 38 38 38 40 39 36 34 35 36 38 41 43 43 41 40 41 43 43 45 45 42 39 38 38 36 35 35 35 37 39 41 44 44 43 42 40 39 38 37 37 37 37 36 36 35 33 32 31 29 27 25 24 23
22 23 25 26 27 28 29 29 28 31 34 35 34 34 35 33 31 33 35 35 35 40 43 42 41 41 41 42 44 45 43 41 41 39 35 34 34 34 35 37 39 42 43 42 41 40 39 39 38 39 39 39 39 37 35 34 33 31 29 28 26 25 24
22 21 20 18 20 23 26 27 27 28 30 32 30 30 31 29 25 26 31 34 35 37 40 42 42 42 42 43 45 46 46 46 45 40 35 33 35 36 37 37 39 42 43 43 42 41 40 40 39 40 41 40 39 37 35 36 35 32 30 29 28 27 27
22 21 21 21 22 23 25 28 29 28 28 29 27 27 30 29 25 23 26 28 31 34 37 38 40 42 42 42 44 47 49 49 47 43 38 38 39 38 37 37 38 41 44 44 44 43 42 41 41 42 42 40 39 38 35 35 36 35 32 31 30 30 30
23 24 24 23 22 22 25 28 30 28 27 27 26 24 26 26 24 24 24 24 25 29 32 31 34 40 44 43 43 46 49 51 50 47 44 42 41 40 39 39 40 42 44 45 46 45 44 43 42 43 43 41 39 38 35 35 36 35 33 33 32 32 32
Wind_Direction
207 210 211 211 212 210 209 210 211 214 216 216 216 215 214 213 213 214 213 213 213 214 216 218 221 224 225 224 224 223 222 220 218 215 209 201 201 207 210 212 213 208 200 205 212 205 167 190 224 223 226 229 232 233 236 239 240 243 245 244 244 245 248
210 211 210 209 210 209 208 209 210 211 213 214 214 213 213 212 213 214 214 214 215 216 217 219 221 223 224 224 223 221 221 222 222 222 217 210 207 208 208 211 216 218 220 228 230 218 196 184 212 220 218 221 232 234 234 236 239 243 246 246 245 244 247
209 209 208 207 208 208 208 209 209 210 210 210 211 211 212 211 212 213 214 215 216 217 218 219 219 221 223 224 223 222 222 224 224 222 221 220 217 215 211 210 212 216 221 226 222 213 206 205 212 222 210 205 222 233 231 232 236 241 243 243 243 241 242
207 204 204 205 207 208 209 209 209 208 208 208 208 209 210 210 211 212 213 215 216 217 218 219 219 219 222 224 224 223 223 225 226 224 223 223 222 220 217 214 212 214 215 216 215 209 202 198 203 222 217 212 221 233 234 234 236 238 241 241 240 239 240
207 204 204 206 206 206 208 208 208 207 206 206 206 207 209 210 210 211 213 214 215 217 218 219 219 219 221 223 224 224 224 225 226 226 225 224 222 220 219 218 218 218 219 221 221 216 211 209 207 210 217 215 224 237 240 240 240 238 238 239 240 239 241
207 206 207 208 208 208 208 206 205 205 203 203 204 206 208 209 210 211 212 214 215 217 219 219 220 220 220 221 223 224 225 225 225 226 226 226 225 223 223 223 222 223 224 225 225 223 222 218 214 215 220 215 218 235 239 242 244 243 240 238 239 240 242
207 208 209 209 210 209 208 206 205 204 203 203 204 206 207 208 210 212 213 214 216 217 218 219 220 220 221 221 222 224 224 225 225 226 227 228 228 227 227 227 226 227 228 229 228 227 226 223 219 220 221 217 223 234 239 242 241 242 241 239 238 237 240
208 208 210 211 210 209 209 207 206 205 206 206 206 206 207 208 210 212 214 215 216 217 218 219 219 219 220 221 221 223 224 225 225 225 226 227 227 228 229 230 230 230 230 230 230 230 230 230 230 231 225 209 223 243 245 244 241 239 240 241 238 234 235
209 210 211 212 211 209 209 208 207 207 208 208 207 207 207 208 210 212 214 216 217 217 218 219 219 219 219 220 221 222 223 224 224 225 226 226 227 229 230 231 230 231 232 231 231 233 233 233 236 238 232 217 211 235 243 243 247 243 241 239 236 234 233
209 211 212 212 212 211 211 211 210 210 209 208 208 208 208 209 211 213 214 215 216 218 219 219 219 219 218 219 220 222 222 222 222 224 226 227 228 230 231 231 230 231 233 232 232 233 234 233 233 235 234 226 220 214 210 234 237 233 235 233 233 235 233
210 211 213 213 213 211 211 212 213 212 211 209 209 210 210 211 212 214 215 215 215 217 218 219 219 218 218 219 221 222 223 222 221 222 225 226 228 229 229 230 231 232 233 232 232 233 231 231 231 231 233 232 229 225 217 226 239 229 227 229 233 236 234
211 212 213 215 214 212 211 211 213 214 213 210 209 210 211 212 213 214 215 215 215 216 217 218 219 219 218 219 220 221 222 222 221 221 223 225 226 227 227 228 230 231 232 232 232 231 231 231 231 232 234 234 233 232 227 221 239 244 233 233 238 239 238
211 212 213 214 215 214 213 212 213 214 213 211 210 210 211 213 213 214 215 214 214 215 216 217 217 218 218 219 219 220 221 221 221 220 221 223 224 225 226 227 228 230 231 231 230 231 231 231 233 235 236 234 232 233 230 222 222 250 247 246 250 246 240
211 212 212 214 215 216 215 214 214 215 214 212 210 209 211 213 214 214 214 214 214 214 215 215 216 216 217 218 219 219 219 219 220 220 220 222 223 223 225 226 228 229 229 230 231 232 231 232 235 235 234 234 232 230 229 223 222 239 246 245 249 248 239
209 210 212 213 214 216 216 215 215 215 214 213 211 210 211 213 214 214 215 215 215 214 214 215 215 215 216 218 218 218 218 218 218 219 219 221 222 222 223 225 227 228 229 230 232 233 232 232 232 231 229 230 231 231 230 226 223 225 228 233 239 239 235
209 210 211 213 214 215 216 217 216 216 215 214 213 213 213 213 214 214 215 216 217 216 215 215 215 215 216 217 217 217 217 217 218 218 218 220 222 221 222 223 226 226 226 228 231 232 232 231 229 228 227 227 229 231 232 229 225 221 216 220 227 227 227
211 211 211 212 215 215 215 217 217 218 217 215 214 215 215 215 215 215 215 216 217 217 216 215 215 216 217 218 218 217 217 217 218 219 220 221 222 221 221 222 224 225 224 226 229 229 230 229 228 228 228 229 230 232 233 229 227 224 215 211 215 220 222
214 212 213 213 214 215 216 217 218 219 219 217 216 216 215 215 215 215 216 217 217 217 217 216 215 216 217 218 219 219 218 218 219 220 221 222 222 222 222 222 223 223 222 224 225 227 229 230 230 230 231 231 232 232 233 230 227 226 220 213 209 210 213
225 216 214 215 215 215 216 217 218 219 218 218 218 217 216 216 216 217 218 219 218 218 218 217 216 217 218 218 219 220 220 220 220 220 221 222 222 223 223 223 223 222 221 222 223 225 228 230 230 231 231 232 232 230 228 226 225 225 224 220 210 202 202
232 223 216 216 217 217 217 218 219 219 218 218 218 217 218 217 218 219 220 220 220 220 219 218 218 218 218 218 219 220 221 220 220 221 222 222 222 223 224 224 223 222 221 222 222 225 228 230 231 232 233 233 231 226 222 221 221 221 221 217 208 199 197
235 229 220 217 217 217 218 219 220 220 219 218 218 219 219 218 218 219 220 221 221 220 219 219 219 219 219 219 219 220 221 220 220 220 221 222 222 223 224 224 223 223 223 224 225 227 230 231 231 232 233 232 228 222 219 218 218 219 217 210 204 199 194
240 232 222 218 217 217 219 220 220 220 219 219 220 220 220 220 219 219 219 220 220 220 219 219 221 221 220 219 219 220 220 220 219 219 220 221 222 223 223 223 223 223 224 226 228 231 234 234 232 231 229 226 222 220 219 218 218 215 211 205 201 197 192
244 235 224 219 219 219 220 221 221 220 220 220 221 221 221 221 220 219 220 219 219 218 218 220 222 223 222 220 219 220 220 220 219 218 218 219 221 222 223 223 224 224 224 226 229 233 235 234 233 232 230 225 222 220 218 216 216 213 208 203 200 194 190
239 235 226 221 222 222 222 222 221 221 221 221 222 221 221 220 220 221 221 220 219 218 218 221 223 224 224 222 220 220 220 220 219 217 217 217 219 221 222 222 223 224 224 225 228 232 234 234 234 233 233 232 230 227 222 218 217 214 210 208 205 198 194
233 233 228 226 226 225 224 223 222 221 221 221 222 221 220 220 221 222 222 222 221 220 221 223 224 224 225 224 222 221 220 220 218 217 217 217 218 220 221 221 221 222 224 225 227 230 232 234 235 235 236 237 235 233 232 231 227 220 214 211 208 203 201
239 240 237 234 232 229 227 225 224 223 222 222 221 220 221 221 222 222 222 223 223 222 223 224 224 224 225 225 224 222 220 220 219 217 217 216 218 220 221 220 220 221 223 224 226 229 230 231 233 233 236 238 236 234 236 237 236 232 225 219 212 209 210
245 246 244 242 239 235 231 229 227 225 224 223 221 220 220 221 222 222 222 223 224 224 225 225 225 225 226 226 224 222 220 220 220 219 218 217 217 219 221 220 218 219 222 223 224 226 226 227 228 228 230 232 232 231 231 231 232 232 231 226 221 220 220
248 247 246 244 243 242 239 236 233 230 226 223 222 222 221 220 220 221 222 222 223 225 226 226 225 225 226 227 225 222 220 220 220 220 219 218 217 218 221 221 219 219 220 221 222 223 223 223 224 224 224 225 227 227 227 228 229 229 229 228 228 229 230
257 254 248 242 240 240 240 241 242 242 240 234 227 223 222 221 221 221 221 221 222 225 227 227 225 226 227 226 225 221 218 218 220 220 219 218 217 217 219 220 218 218 220 220 221 221 221 222 222 221 220 222 223 224 226 227 228 228 229 229 230 234 236
265 262 255 247 243 242 240 240 242 243 246 250 247 237 227 222 221 221 221 220 220 223 227 228 226 226 227 226 223 219 216 217 219 220 220 218 216 216 218 219 217 217 219 220 220 220 220 221 221 219 218 218 218 220 222 222 222 223 224 227 230 233 235
273 267 261 256 254 251 248 246 244 239 235 240 249 252 248 237 227 223 221 221 221 222 226 228 227 227 227 225 222 217 215 215 218 220 219 218 216 216 217 218 217 216 217 219 220 219 219 219 219 217 216 214 213 215 216 216 215 216 216 219 223 227 227
278 272 266 262 260 258 254 252 250 244 237 234 236 242 250 252 246 236 228 223 222 222 225 228 228 227 227 226 222 217 213 213 216 219 218 217 216 216 216 217 217 216 217 219 219 218 219 219 219 218 216 213 211 213 214 213 212 212 211 211 213 216 215
276 272 268 264 262 260 256 254 251 246 242 239 237 237 239 241 246 250 246 235 226 223 224 226 228 228 227 226 223 217 212 212 216 218 217 215 214 214 214 215 215 215 215 217 219 218 219 220 221 221 217 213 213 215 215 213 213 213 211 209 208 209 206
274 273 271 265 263 263 259 254 252 249 246 243 241 241 241 237 235 240 247 245 235 227 223 223 225 226 226 227 224 218 213 214 218 218 216 214 213 212 212 212 213 212 211 215 218 218 219 222 223 222 220 219 221 221 217 213 213 213 211 208 205 202 199
273 271 266 258 259 264 264 259 254 250 246 244 240 240 243 244 242 239 241 242 241 238 230 223 222 224 225 225 224 219 216 217 220 219 215 214 213 213 212 211 211 209 208 212 217 218 220 223 223 223 224 224 224 223 220 216 213 210 207 205 201 197 194
271 262 253 248 249 251 254 255 253 247 240 236 235 234 236 240 243 246 246 242 241 246 244 232 224 223 225 225 223 220 219 219 219 217 215 215 215 214 212 211 210 208 207 210 215 217 219 222 222 224 225 223 222 223 220 215 211 207 205 203 200 197 195
262 253 250 251 250 246 246 249 249 246 239 231 228 230 232 230 226 228 236 235 231 238 248 247 237 229 227 227 225 221 220 219 218 217 216 217 217 214 210 209 209 207 205 210 215 217 218 220 222 223 222 220 220 220 216 211 208 206 203 202 201 199 198